Track COSMOS 1833 now! 10-day predictions COSMOS 1833 is classified as:
1 17589U 87027A 23078.82588701 -.00000050 00000-0 -11278-5 0 9994 2 17589 70.9206 88.2405 0025235 23.9718 336.2572 14.12950554856924